Location: DaltonSkyGazer Observatory
(42.4858°N, 73.1565°W)
Time: 12:01:22
(UTC-04:00)

Daily predictions for brighter satellites

Satellite Brightness Start Highest point End
(mag) Time Altitude Azimuth Time Altitude Azimuth Time Altitude Azimuth
ERS-1 Rocket 4.5 19:50:23 10° ESE 19:53:49 19° ENE 19:57:14 10° NNE
Cosmos 2297 Rocket 2.4 19:52:51 10° NNW 19:58:32 79° WSW 20:04:10 10° SSE
CZ-2D R/B 3.7 19:57:20 10° SE 20:01:01 43° ENE 20:04:45 10° N
Cosmos 2082 4.4 19:56:46 10° NNW 20:02:16 56° WSW 20:07:45 10° S
Resurs 01 Rocket 2.1 19:59:19 10° S 20:03:43 65° WSW 20:08:10 10° NNW
Cosmos 1763 Rocket 4.4 20:00:51 10° SSE 20:04:58 25° E 20:09:03 10° NE
Lacrosse 5 rocket 3.4 20:02:48 10° WNW 20:05:40 21° SW 20:08:28 10° S
Cosmos 1975 2.9 20:01:38 10° S 20:05:42 63° E 20:09:45 10° NNE
FengYun 1-2 T 4.3 20:02:31 10° SSE 20:08:09 89° WSW 20:13:47 10° NNW
Cosmos 2150 Rocket 4.0 20:06:44 10° NNW 20:11:54 72° ENE 20:17:04 10° SSE
Cosmos 1515 3.7 20:11:09 10° N 20:14:59 64° E 20:18:45 10° SSE
Cosmos 2084 4.3 20:15:21 10° NW 20:19:16 47° WSW 20:23:24 10° SSE
Cosmos 1898 Rocket 3.5 20:14:01 10° NNW 20:19:20 88° ENE 20:24:35 10° SSE
Cosmos 1825 Rocket 4.3 20:16:52 10° N 20:20:52 33° ENE 20:24:23 12° SE
Cosmos 468 Rocket 3.9 20:22:14 10° SSW 20:27:21 85° ESE 20:32:31 10° NNE
Cosmos 841 Rocket 3.9 20:26:10 10° S 20:30:59 38° ESE 20:35:47 10° NE
Cosmos 1697 Rocket 2.7 20:25:45 10° SSW 20:31:23 87° WNW 20:37:05 10° NNE
Cosmos 1953 Rocket 4.3 20:29:45 10° N 20:33:50 33° ENE 20:36:27 18° SE
Cosmos 2173 Rocket 4.1 20:30:05 10° SSE 20:36:15 56° E 20:42:24 10° NNE
H-2A R/B 3.5 20:35:01 17° E 20:36:23 20° ENE 20:39:29 10° NNE
Cosmos 1743 2.9 20:33:27 10° S 20:37:14 49° E 20:41:02 10° NNE
Cosmos 1626 Rocket 4.4 20:33:31 10° NNW 20:37:47 51° W 20:41:59 10° S
Cosmos 1066 Rocket 4.3 20:35:11 10° N 20:40:56 90° W 20:46:45 10° S
Cosmos 1814 Rocket 4.1 20:37:04 10° SSW 20:42:25 85° WNW 20:47:44 10° NNE
Cosmos 967 Rocket 4.5 20:36:03 10° NNW 20:42:26 76° ENE 20:47:19 18° SE
Lacrosse 5 2.7 20:42:00 10° WNW 20:46:50 46° SW 20:50:59 14° SSE
SL-16 R/B 3.0 20:42:40 10° SSE 20:47:25 28° ESE 20:52:12 10° NE
Cosmos 1939 Rocket 3.4 20:46:28 24° SE 20:48:31 43° ENE 20:52:29 10° N
SJ-11-01 4.3 20:45:46 17° SSE 20:49:19 62° ENE 20:53:57 10° N
Cosmos 1758 Rocket 3.9 20:47:49 10° N 20:51:58 43° ENE 20:53:45 28° SE
Iridium 4 Rocket 3.9 20:49:43 10° N 20:54:29 58° W 20:58:51 10° SSW
USA 186 3.0 20:52:52 10° SSW 20:55:38 36° W 20:58:12 10° NNW
Cosmos 1980 Rocket 2.2 20:50:38 10° SSW 20:56:19 89° WNW 21:02:04 10° NNE
Cosmos 2100 Rocket 4.0 20:50:09 10° S 20:56:25 87° E 21:02:40 10° N
SPOT 5 3.7 20:57:22 27° ESE 20:58:53 33° ENE 21:03:05 10° N
YAOGAN 11 4.0 20:58:11 20° SSE 21:01:16 82° ENE 21:05:42 10° NNW
ALOS 3.9 20:59:55 10° SSW 21:04:09 34° W 21:08:25 10° NNW
YAOGAN 6 3.9 21:08:22 26° ENE 21:08:22 26° ENE 21:11:09 10° NNE
deb Chang Zheng 4 4.0 21:05:48 10° NNE 21:10:02 41° E 21:10:32 39° ESE
Tsikada Rocket 4.3 21:04:23 10° N 21:10:39 51° ENE 21:13:33 30° SE
RESURS DK-1 4.2 21:10:41 10° NW 21:14:13 27° WSW 21:17:35 11° SSW
Cosmos 1666 2.6 21:13:59 52° SE 21:14:37 63° E 21:18:24 10° NNE
Envisat 2.9 21:12:39 29° SSE 21:15:18 78° ENE 21:20:24 10° N
CZ-4 DEB 3.2 21:14:51 38° SSW 21:15:45 56° W 21:18:51 10° NNW
Cosmos 2061 Rocket 4.2 21:09:41 10° SSW 21:15:58 74° W 21:22:14 10° N
Cosmos 1459 Rocket 4.2 21:10:58 10° SSW 21:17:00 70° W 21:23:09 10° N
Cosmos 1842 3.1 21:14:19 10° N 21:18:13 69° E 21:18:45 59° SE
Cosmos 2263 Rocket 2.9 21:13:54 10° N 21:19:01 36° ENE 21:20:21 32° E
Tiangong 1 3.2 21:19:13 10° WSW 21:21:05 18° SW 21:21:05 18° SW
Cosmos 1606 Rocket 3.8 21:17:36 10° SSW 21:21:59 70° W 21:26:26 10° N
Cosmos 2058 Rocket 3.0 21:22:10 32° S 21:24:12 79° E 21:28:44 10° N
Cosmos 1725 Rocket 3.9 21:23:02 21° S 21:27:14 69° E 21:33:27 10° NNE
Cosmos 1340 3.9 21:25:49 10° NNW 21:29:23 40° W 21:31:12 24° SSW
BREEZE-M DEB (TANK) 4.5 21:04:23 10° WNW 21:29:29 71° NNE 21:32:51 32° E
Cosmos 2322 Rocket 2.0 21:26:12 10° SSW 21:31:45 71° ESE 21:37:22 10° NNE
ERS-1 Rocket 3.5 21:29:00 22° S 21:32:08 57° W 21:37:06 10° NNW
MetOp-A 4.1 21:31:13 47° SE 21:32:35 65° ENE 21:37:54 10° N
Cosmos 1726 Rocket 4.5 21:40:10 13° SSW 21:43:52 47° WNW 21:48:09 10° N
Meteor 2-9 Rocket 4.2 21:42:27 19° SSW 21:46:28 75° W 21:51:51 10° N
Cosmos 2233 Rocket 4.0 21:46:05 52° SE 21:47:13 61° E 21:53:23 10° NNE
SL-19 R/B 4.3 21:43:39 10° NNE 21:48:20 51° ENE 21:48:20 51° ENE
Genesis I 4.4 21:49:34 10° NNW 21:52:24 36° NNE 21:52:24 36° NNE
H-2A R/B 3.1 21:54:29 29° NE 21:54:29 29° NE 21:57:56 10° N
Cosmos 783 Rocket 4.3 21:54:20 68° S 21:54:59 82° ESE 22:00:17 10° NNE
USA 215 4.3 21:52:31 24° ENE 21:55:36 36° NNE 22:01:26 10° NW
Meteor 2-5 Rocket 3.9 21:51:25 10° N 21:57:14 55° ENE 21:57:20 55° E
BREEZE-M DEB (TANK) 3.4 21:57:42 10° WNW 21:59:21 38° W 21:59:21 38° W
ASTEX 1 3.9 21:58:45 10° N 22:03:39 56° W 22:05:15 38° SW
Cosmos 405 Rocket 4.0 22:02:12 10° NNW 22:04:31 36° NNW 22:04:31 36° NNW
Cosmos 1125 Rocket 4.2 22:02:35 10° NNW 22:07:35 47° WSW 22:08:30 42° SW
Cosmos 2228 3.8 22:08:22 46° W 22:08:37 47° WNW 22:12:46 10° N
H-2A R/B 3.3 22:12:09 34° W 22:12:11 34° W 22:16:01 10° NNW
SPOT 1/Viking Rocket 3.5 22:13:18 84° WNW 22:13:18 84° WNW 22:18:25 10° NNW
Cosmos 540 Rocket 3.7 22:12:08 52° WSW 22:13:12 65° WNW 22:18:19 10° NNE
Cosmos 2278 Rocket 4.3 22:11:56 10° NNE 22:14:46 14° NE 22:15:11 14° NE
Cosmos 332 Rocket 4.5 22:17:01 43° WSW 22:18:09 52° WNW 22:22:59 10° N
Cosmos 371 Rocket 4.0 22:20:55 50° N 22:20:55 50° N 22:24:34 10° NNE
ARGOS 3.1 22:20:24 79° WNW 22:20:24 79° WNW 22:25:40 10° NNW
Cosmos 1844 Rocket 4.0 22:24:37 10° N 22:28:41 29° NE 22:28:41 29° NE
NOAA 11 4.4 22:29:45 66° W 22:29:45 66° W 22:35:02 10° NNW
SL-16 R/B 3.3 22:25:56 10° SW 22:31:18 43° WNW 22:36:43 10° NNE
SPOT 5 4.4 22:36:37 28° WSW 22:36:56 28° W 22:41:01 10° NW
Cosmos 1464 Rocket 4.3 22:39:00 58° NE 22:39:00 58° NE 22:44:12 10° NNE
Cosmos 2360 Rocket 3.0 22:42:34 44° NNE 22:42:34 44° NNE 22:46:21 10° NNE
Terra 3.2 22:47:05 35° N 22:47:05 35° N 22:49:52 10° N
Cosmos 2263 Rocket 3.5 22:57:56 10° NW 23:02:03 32° W 23:02:03 32° W
H-2A R/B 4.0 23:35:08 22° NW 23:35:08 22° NW 23:37:23 10° NW
Cosmos 2333 Rocket 4.4 23:39:21 17° NE 23:39:21 17° NE 23:40:35 10° NE
USA 215 3.8 23:39:52 54° NW 23:39:52 54° NW 23:44:44 10° NW
COSMOS 2428 4.3 23:54:28 30° N 23:54:28 30° N 23:57:30 10° NNE
